COSMOS 2251 DEB, 34314

Orbit data source: Space-Track

COSMOS 2251 DEB, 34314 is space debris in LEO originally from a launch on Wed, 16 Jun 1993 UTC launched from the Plesetsk Missile And Space Complex (PKMTR). The debris from Iridium 33, an American commercial communications satellite, has been tracked extensively since its accidental collision with the defunct Russian satellite Cosmos 2251 in 2009. This event, occurring at high speed in low Earth orbit (LEO), generated thousands of pieces of space debris, significantly increasing the risk of further collisions. The Iridium 33 debris cloud has impacted space traffic management and orbital debris mitigation strategies, making it a subject of ongoing study in space situational awareness.

Loading next visibility...
Identifier
34314, 1993-036NL
Orbit
LEO
Country
Flag of CISCIS
Related business
Manufacturer
Unknown
Mission
Spacecraft
Bus & Motor
Unknown
Mass
Unknown
Launch date (UTC)
1993-06-16 (32 years ago)
Launch vehicle
Unknown
Launch site
Plesetsk Missile And Space Complex (PKMTR)
Object type
Payload
Rocket body
Debris
Shape & HBR
Unknown shape, 0.1 m
Radar Cross Section
Small (<0.1 m²)

Expand to show TLE details & history
Last TLE update: 13 hours ago

TLE from 13 hours ago
0 COSMOS 2251 DEB
1 34314U 93036NL  25289.04619477  .00003003  00000-0  14223-2 0  9990
2 34314  74.0069  51.3204 0104331 171.2498 308.7430 14.17212761858404
Epoch: 2025-10-16T01:06Z
TLE epoch observation values (Epoch: 2025-10-16T01:06:31.228Z)
Latitude
57.28356°
Longitude
163.53257°
Altitude
797.431 km
Speed
7.485 km/s
True Right ascension
13h 39m 53s
True Declination
57° 07' 40"
Sunlit
Object was in daylight at epoch
Visualization orbit readout
Latitude
Unknown
Longitude
Unknown
Altitude
Unknown
Speed
Unknown
Apparent Right ascension
Unknown
Apparent Declination
Unknown
Sunlit
N/A
Visualization observer readout
Local Sidereal Time
08:54:55
Azimuth
Unknown
Elevation
Unknown
Doppler factor
Unknown
Orbital elements
Apogee altitude
907.67 km
Perigee altitude
757.213 km
Semi-major axis
7,210.578 km
Eccentricity
0.01043
Inclination
74.0069°
RAAN
51.3204°
Arg. of periapsis
171.2498°
True anomaly
307.80289°
Mean anomaly
308.743°
Eccentric anomaly
308.27371°
Mean motion
3.54477 °/min
Orbital period
101.56 mins
BSTAR
0.0014223

Documentation

Showing up to 5 results
|